User: anonymous   Login
Location: Theodore Roosevelt National Park
(46.9990°N, 103.4631°W)
Time: 22:54:57
(UTC-06:00)
Language:

Cosmos 2219 Rocket - Orbit

View from above orbital plane
View from above orbital plane
View from above satellite
View from above satellite

Ground track
Ground track

The orbit data is extracted from the following two-line orbital elements,

1 22220U 92076B   15107.49561617 -.00000200  00000-0 -76609-4 0  9991
2 22220 070.9993 285.6417 0011505 030.5657 002.2788 14.16361450158673
Epoch (UTC): 17 April 2015 11:53:41
Eccentricity: 0.0011505
inclination: 70.9993°
perigee height: 829 km
apogee height: 846 km
right ascension of ascending node: 285.6417°
argument of perigee: 30.5657°
revolutions per day: 14.16361450
mean anomaly at epoch: 2.2788°
orbit number at epoch: 15867

The dashed part of the orbit path shows where the satellite is in the earth's shadow,  

DLR